Total_Precipitation_Accumulation
0.22 0.37 0.56 0.72 0.82 0.88 0.92 0.95 0.95 1.04 1.17 1.42 1.63 1.65 1.68 1.82 1.87 1.88 1.92 2.02 2.11 2.21 2.22 2.12 2.00 1.85 1.72 1.59 1.46 1.29 1.13 1.03 0.95 0.88 0.74 0.57 0.46 0.45 0.44 0.43 0.44 0.46 0.44
0.35 0.60 0.80 1.08 1.16 1.13 1.14 1.20 1.26 1.44 1.63 1.91 2.21 2.51 2.60 2.70 2.72 2.73 2.83 2.87 2.96 3.05 3.07 2.92 2.74 2.56 2.24 1.82 1.50 1.32 1.22 1.09 1.04 1.00 0.94 0.71 0.53 0.41 0.32 0.34 0.36 0.39 0.40
0.71 0.92 1.08 1.16 1.34 1.42 1.48 1.54 1.71 2.05 2.43 2.78 3.11 3.44 3.67 3.71 3.60 3.39 3.38 3.46 3.50 3.57 3.63 3.50 3.17 2.71 2.18 1.74 1.52 1.42 1.31 1.18 1.08 0.99 0.98 0.88 0.75 0.54 0.36 0.30 0.27 0.28 0.27
0.76 0.92 1.11 1.31 1.41 1.53 1.68 1.76 1.99 2.44 2.85 3.23 3.72 4.13 4.31 4.45 4.52 4.33 4.06 3.84 3.61 3.54 3.44 3.22 2.75 2.29 1.91 1.64 1.51 1.38 1.19 1.08 0.92 0.82 0.73 0.70 0.67 0.60 0.44 0.32 0.24 0.21 0.17
0.53 0.71 0.88 1.19 1.44 1.51 1.53 1.62 1.97 2.50 3.17 3.79 4.24 4.61 4.83 4.89 4.80 4.46 4.08 3.69 3.33 2.94 2.64 2.34 2.04 1.83 1.61 1.37 1.17 1.02 0.86 0.74 0.62 0.56 0.51 0.48 0.46 0.44 0.40 0.33 0.26 0.22 0.20
0.36 0.44 0.59 0.85 1.16 1.24 1.41 1.63 1.96 2.61 3.31 3.82 4.25 4.54 4.74 4.68 4.39 3.97 3.47 3.13 2.78 2.39 2.05 1.83 1.59 1.40 1.18 0.95 0.76 0.61 0.52 0.47 0.45 0.42 0.39 0.36 0.34 0.32 0.33 0.32 0.26 0.22 0.21
0.32 0.39 0.47 0.64 0.90 1.08 1.36 1.69 2.08 2.59 3.04 3.50 3.84 4.01 4.13 4.08 3.96 3.69 3.31 2.98 2.55 2.11 1.73 1.45 1.24 1.02 0.79 0.62 0.51 0.41 0.33 0.29 0.26 0.25 0.25 0.24 0.24 0.23 0.25 0.25 0.22 0.20 0.19
0.38 0.46 0.60 0.74 0.88 1.01 1.20 1.50 1.85 2.27 2.51 2.71 2.98 3.13 3.23 3.22 3.07 2.88 2.61 2.30 1.97 1.70 1.40 1.08 0.80 0.59 0.46 0.39 0.33 0.29 0.26 0.21 0.19 0.18 0.17 0.16 0.15 0.13 0.14 0.17 0.18 0.21 0.21
0.37 0.48 0.61 0.71 0.80 0.88 1.04 1.20 1.38 1.64 1.90 2.10 2.21 2.27 2.29 2.19 2.08 1.91 1.70 1.53 1.35 1.13 0.89 0.68 0.53 0.42 0.33 0.26 0.23 0.21 0.18 0.15 0.14 0.13 0.13 0.13 0.12 0.12 0.12 0.13 0.16 0.21 0.26
0.40 0.48 0.54 0.57 0.61 0.65 0.78 0.92 1.03 1.17 1.35 1.47 1.50 1.45 1.41 1.36 1.26 1.14 1.04 0.89 0.75 0.62 0.52 0.45 0.38 0.33 0.28 0.24 0.20 0.17 0.15 0.13 0.13 0.12 0.12 0.13 0.14 0.15 0.16 0.17 0.18 0.19 0.23
0.45 0.46 0.47 0.48 0.45 0.46 0.55 0.64 0.71 0.85 0.96 0.98 0.95 0.87 0.82 0.77 0.72 0.66 0.62 0.53 0.46 0.40 0.36 0.33 0.30 0.27 0.24 0.22 0.20 0.19 0.17 0.17 0.18 0.18 0.18 0.19 0.19 0.18 0.17 0.16 0.16 0.15 0.18
0.47 0.43 0.41 0.39 0.37 0.39 0.43 0.46 0.51 0.56 0.59 0.57 0.52 0.50 0.49 0.48 0.47 0.45 0.42 0.39 0.37 0.34 0.32 0.29 0.27 0.25 0.24 0.23 0.22 0.21 0.21 0.20 0.21 0.20 0.19 0.18 0.17 0.18 0.18 0.17 0.17 0.17 0.19
0.54 0.48 0.46 0.41 0.40 0.42 0.40 0.36 0.35 0.35 0.36 0.36 0.35 0.35 0.37 0.38 0.39 0.41 0.41 0.39 0.37 0.35 0.32 0.29 0.28 0.27 0.26 0.24 0.22 0.21 0.20 0.18 0.17 0.16 0.15 0.13 0.12 0.12 0.11 0.11 0.10 0.09 0.10
0.56 0.56 0.58 0.55 0.48 0.43 0.41 0.37 0.34 0.30 0.28 0.28 0.27 0.27 0.28 0.30 0.32 0.33 0.32 0.32 0.33 0.34 0.34 0.32 0.30 0.27 0.23 0.20 0.16 0.14 0.12 0.10 0.08 0.07 0.06 0.05 0.05 0.07 0.08 0.08 0.08 0.09 0.11
0.69 0.70 0.69 0.62 0.54 0.51 0.48 0.43 0.40 0.36 0.33 0.32 0.32 0.31 0.30 0.30 0.32 0.33 0.33 0.33 0.31 0.28 0.25 0.21 0.17 0.13 0.10 0.08 0.06 0.04 0.04 0.03 0.02 0.02 0.02 0.02 0.03 0.05 0.06 0.06 0.08 0.13 0.17
0.92 0.89 0.82 0.74 0.70 0.67 0.63 0.57 0.51 0.48 0.46 0.45 0.45 0.45 0.43 0.42 0.40 0.36 0.31 0.27 0.22 0.16 0.12 0.09 0.07 0.05 0.03 0.02 0.02 0.01 0.01 0.02 0.02 0.02 0.03 0.02 0.03 0.02 0.02 0.05 0.10 0.16 0.19
1.06 1.05 1.02 0.94 0.86 0.81 0.77 0.73 0.66 0.60 0.57 0.56 0.55 0.54 0.49 0.43 0.34 0.25 0.18 0.14 0.11 0.09 0.07 0.05 0.03 0.03 0.01 0.00 0.00 0.00 0.01 0.02 0.03 0.04 0.05 0.03 0.02 0.03 0.05 0.06 0.07 0.09 0.10
1.06 1.05 1.04 1.02 0.98 0.89 0.80 0.76 0.70 0.64 0.60 0.58 0.53 0.48 0.39 0.30 0.22 0.15 0.12 0.10 0.09 0.07 0.05 0.04 0.04 0.04 0.02 0.00 0.00 0.00 0.01 0.03 0.04 0.04 0.05 0.05 0.06 0.06 0.06 0.05 0.06 0.11 0.14
1.18 1.13 1.07 0.98 0.92 0.85 0.77 0.73 0.71 0.65 0.58 0.51 0.40 0.30 0.22 0.16 0.12 0.10 0.10 0.09 0.08 0.06 0.05 0.04 0.05 0.07 0.06 0.01 0.00 0.00 0.01 0.03 0.04 0.04 0.03 0.04 0.07 0.07 0.07 0.07 0.12 0.18 0.22
1.00 0.93 0.83 0.73 0.67 0.66 0.63 0.58 0.54 0.47 0.38 0.29 0.21 0.16 0.14 0.11 0.09 0.08 0.08 0.07 0.07 0.06 0.05 0.04 0.05 0.07 0.08 0.02 0.00 0.00 0.01 0.03 0.04 0.06 0.08 0.06 0.06 0.05 0.05 0.06 0.15 0.23 0.25
0.72 0.66 0.61 0.58 0.54 0.49 0.43 0.37 0.31 0.27 0.20 0.16 0.14 0.12 0.10 0.08 0.07 0.07 0.06 0.06 0.06 0.08 0.08 0.08 0.08 0.08 0.04 0.01 0.00 0.00 0.01 0.02 0.04 0.09 0.16 0.16 0.08 0.05 0.05 0.07 0.13 0.19 0.17
0.46 0.42 0.41 0.38 0.34 0.30 0.26 0.24 0.20 0.15 0.11 0.11 0.12 0.11 0.08 0.04 0.05 0.08 0.08 0.07 0.09 0.11 0.11 0.12 0.11 0.09 0.07 0.03 0.01 0.00 0.00 0.01 0.05 0.14 0.18 0.17 0.09 0.07 0.10 0.11 0.15 0.17 0.24
0.30 0.30 0.26 0.23 0.23 0.22 0.21 0.19 0.15 0.12 0.10 0.11 0.12 0.10 0.07 0.06 0.05 0.07 0.08 0.09 0.10 0.09 0.08 0.09 0.10 0.09 0.10 0.06 0.00 0.00 0.00 0.01 0.05 0.12 0.11 0.12 0.13 0.15 0.26 0.24 0.21 0.28 0.42
0.23 0.23 0.21 0.20 0.20 0.19 0.19 0.18 0.14 0.14 0.16 0.18 0.14 0.11 0.10 0.08 0.07 0.08 0.07 0.07 0.09 0.07 0.07 0.09 0.09 0.10 0.11 0.06 0.02 0.02 0.04 0.05 0.08 0.10 0.14 0.22 0.28 0.32 0.39 0.43 0.48 0.50 0.50
0.21 0.20 0.22 0.20 0.16 0.15 0.15 0.13 0.14 0.16 0.21 0.21 0.15 0.11 0.09 0.09 0.10 0.10 0.06 0.04 0.05 0.02 0.03 0.05 0.05 0.06 0.06 0.03 0.02 0.02 0.02 0.03 0.05 0.07 0.19 0.35 0.41 0.47 0.50 0.53 0.57 0.59 0.52
0.16 0.19 0.19 0.15 0.13 0.12 0.12 0.11 0.12 0.14 0.18 0.20 0.14 0.08 0.06 0.07 0.07 0.10 0.11 0.04 0.01 0.00 0.00 0.00 0.01 0.02 0.02 0.02 0.02 0.02 0.02 0.04 0.07 0.13 0.28 0.35 0.39 0.43 0.43 0.43 0.47 0.52 0.51